FW8483 Weather Reports


Display with metric or nautical units.
time (UTC)temp
F
wind
direction
speed
MPH
gust
MPH
rain 1hr
in
rain 24hr
in
rain mn
in
humidity
%
barometer
mb
20260831122006 74 55 3.0 6.0 0.00 0.00 0.00 96 1018.6
20260831121517 74 45 2.0 5.0 0.00 0.00 0.00 96 1018.5
20260831121007 74 46 1.0 5.0 0.00 0.00 0.00 96 1018.6
20260831120506 74 27 2.0 4.0 0.00 0.00 0.00 96 1018.5
20260831120021 73 47 1.0 4.0 0.00 0.00 0.00 96 1018.5
20260831115504 73 40 2.0 4.0 0.00 0.00 0.00 96 1018.4
20260831115006 73 59 2.0 4.0 0.00 0.00 0.00 96 1018.3
20260831114513 73 22 2.0 4.0 0.00 0.00 0.00 96 1018.2
20260831114007 73 352 2.0 4.0 0.00 0.00 0.00 96 1018.3
20260831113507 73 45 2.0 4.0 0.00 0.00 0.00 96 1018.2
20260831113013 73 21 1.0 4.0 0.00 0.01 0.00 96 1018.1
20260831112506 73 26 1.0 4.0 0.00 0.01 0.00 96 1018.0
20260831112002 73 17 2.0 4.0 0.00 0.01 0.00 96 1018.0
20260831111526 73 23 1.0 4.0 0.00 0.01 0.00 96 1017.9
20260831111010 73 32 1.0 4.0 0.00 0.01 0.00 96 1017.8
20260831110507 73 12 2.0 4.0 0.00 0.01 0.00 96 1017.7
20260831110014 73 76 2.0 4.0 0.00 0.01 0.00 96 1017.6
20260831105505 73 59 0.0 3.0 0.00 0.01 0.00 96 1017.4
20260831105008 73 65 0.0 0.0 0.00 0.01 0.00 96 1017.3
20260831104528 73 68 0.0 0.0 0.00 0.01 0.00 96 1017.2
20260831104007 73 62 0.0 0.0 0.00 0.01 0.00 96 1017.2
20260831103508 73 59 0.0 0.0 0.00 0.01 0.00 96 1017.2
20260831103037 73 59 0.0 0.0 0.00 0.01 0.00 96 1017.3
20260831102507 73 59 0.0 0.0 0.00 0.01 0.00 96 1017.3
20260831102007 73 59 0.0 0.0 0.00 0.01 0.00 96 1017.3
20260831101517 73 71 0.0 2.0 0.00 0.01 0.00 96 1017.3
20260831101007 73 66 0.0 4.0 0.00 0.01 0.00 96 1017.2
20260831100506 73 76 2.0 4.0 0.00 0.01 0.00 96 1017.2
20260831100024 73 53 0.0 3.0 0.00 0.01 0.00 96 1017.2
20260831095506 73 60 1.0 3.0 0.00 0.01 0.00 96 1017.2
20260831095010 73 57 2.0 3.0 0.00 0.01 0.00 96 1017.3
20260831094528 73 49 0.0 3.0 0.00 0.01 0.00 96 1017.2
20260831094008 73 61 0.0 3.0 0.00 0.01 0.00 95 1017.2
20260831093508 74 83 2.0 3.0 0.00 0.01 0.00 96 1017.2
20260831093016 74 65 0.0 2.0 0.00 0.01 0.00 95 1017.2
20260831092507 74 66 0.0 0.0 0.00 0.01 0.00 96 1017.2
20260831092008 74 66 0.0 0.0 0.00 0.01 0.00 96 1017.1
20260831091516 74 25 0.0 0.0 0.00 0.01 0.00 96 1017.1
20260831091007 74 28 0.0 0.0 0.00 0.01 0.00 96 1017.2
20260831090510 74 62 0.0 0.0 0.00 0.01 0.00 96 1017.2
20260831090018 74 45 0.0 0.0 0.00 0.01 0.00 96 1017.2
20260831085508 74 48 0.0 0.0 0.00 0.01 0.00 95 1017.2
20260831085008 74 61 0.0 0.0 0.00 0.02 0.00 95 1017.1
20260831084520 74 80 0.0 0.0 0.00 0.02 0.00 95 1017.2
20260831084009 74 31 0.0 0.0 0.00 0.02 0.00 95 1017.2
20260831083509 74 31 0.0 0.0 0.00 0.02 0.00 95 1017.1
20260831083025 74 31 0.0 0.0 0.00 0.02 0.00 95 1017.2
20260831082508 74 31 0.0 0.0 0.00 0.02 0.00 95 1017.1
20260831082006 74 31 0.0 0.0 0.00 0.02 0.00 95 1017.1
20260831081519 74 31 0.0 0.0 0.00 0.02 0.00 95 1017.2
20260831081014 74 31 0.0 0.0 0.00 0.02 0.00 95 1017.2
20260831080512 74 352 0.0 0.0 0.00 0.02 0.00 95 1017.1
20260831080040 74 352 0.0 0.0 0.00 0.02 0.00 95 1017.1
20260831075507 74 5 0.0 0.0 0.00 0.02 0.00 95 1017.1
20260831075009 74 30 0.0 0.0 0.00 0.02 0.00 95 1017.1
20260831074524 74 30 0.0 0.0 0.00 0.02 0.00 95 1017.1
20260831074008 74 30 0.0 0.0 0.00 0.02 0.00 95 1017.2
20260831073511 74 30 0.0 0.0 0.00 0.02 0.00 95 1017.2
20260831073030 74 30 0.0 0.0 0.00 0.02 0.00 95 1017.3
20260831072510 74 30 0.0 0.0 0.00 0.02 0.00 95 1017.2
20260831072011 74 30 0.0 0.0 0.00 0.02 0.00 95 1017.1
20260831071520 74 30 0.0 0.0 0.00 0.02 0.00 95 1017.1
20260831071013 74 30 0.0 0.0 0.00 0.02 0.00 95 1017.1
20260831070511 74 30 0.0 0.0 0.00 0.03 0.00 95 1017.1
20260831070021 74 30 0.0 0.0 0.00 0.03 0.00 95 1017.2
20260831065512 74 30 0.0 0.0 0.00 0.03 0.00 95 1017.2
20260831065011 75 30 0.0 0.0 0.00 0.03 0.00 94 1017.2
20260831064521 75 30 0.0 0.0 0.00 0.03 0.00 94 1017.3
20260831064009 75 30 0.0 0.0 0.00 0.03 0.00 94 1017.4
20260831063510 75 30 0.0 0.0 0.00 0.03 0.00 94 1017.3
20260831063024 75 30 0.0 2.0 0.00 0.03 0.00 95 1017.4
20260831062510 75 30 0.0 2.0 0.00 0.03 0.00 95 1017.4
20260831062013 75 44 0.0 2.0 0.00 0.03 0.00 95 1017.4
20260831061524 75 36 0.0 1.0 0.00 0.03 0.00 95 1017.4
20260831061014 75 36 0.0 0.0 0.00 0.03 0.00 95 1017.4
20260831060512 75 11 0.0 0.0 0.00 0.03 0.00 95 1017.4
20260831060026 75 11 0.0 0.0 0.00 0.03 0.00 95 1017.5
20260831055507 75 11 0.0 0.0 0.00 0.03 0.00 95 1017.6
20260831055006 75 11 0.0 0.0 0.00 0.04 0.00 95 1017.4
20260831054518 75 11 0.0 0.0 0.00 0.04 0.00 95 1017.4
20260831054009 75 11 0.0 0.0 0.00 0.04 0.00 95 1017.5
20260831053511 75 11 0.0 0.0 0.00 0.04 0.00 95 1017.4
20260831053028 75 11 0.0 0.0 0.00 0.04 0.00 94 1017.3
20260831052512 75 11 0.0 0.0 0.00 0.04 0.00 94 1017.4
20260831052003 75 11 0.0 0.0 0.00 0.04 0.00 94 1017.5
20260831051511 75 11 0.0 0.0 0.00 0.04 0.00 94 1017.4
20260831051003 75 11 0.0 0.0 0.00 0.04 0.00 94 1017.4
20260831050503 75 11 0.0 0.0 0.00 0.04 0.00 94 1017.5
20260831050012 75 11 0.0 0.0 0.00 0.04 0.00 94 1017.5
20260831045507 75 11 0.0 0.0 0.00 0.04 0.04 94 1017.6
20260831045005 75 11 0.0 0.0 0.00 0.04 0.04 94 1017.6
20260831044516 75 11 0.0 0.0 0.00 0.04 0.04 94 1017.6
20260831044009 75 11 0.0 0.0 0.00 0.04 0.04 94 1017.5
20260831043514 75 11 0.0 0.0 0.00 0.04 0.04 93 1017.4
20260831043025 75 11 0.0 0.0 0.00 0.05 0.04 93 1017.5
20260831042513 75 11 0.0 0.0 0.00 0.05 0.04 93 1017.5
20260831042012 75 11 0.0 0.0 0.00 0.05 0.04 93 1017.5
20260831041530 76 11 0.0 0.0 0.00 0.05 0.04 93 1017.6
20260831041004 76 11 0.0 0.0 0.00 0.05 0.04 92 1017.5
20260831040504 76 11 0.0 0.0 0.00 0.05 0.04 92 1017.6
20260831040008 76 11 0.0 0.0 0.00 0.05 0.04 92 1017.6
20260831035503 76 11 0.0 0.0 0.00 0.05 0.04 92 1017.7
20260831035004 76 11 0.0 0.0 0.00 0.05 0.04 92 1017.7
20260831034515 76 11 0.0 0.0 0.00 0.05 0.04 91 1017.8
20260831034006 77 11 0.0 0.0 0.00 0.05 0.04 91 1017.9
20260831033508 77 11 0.0 0.0 0.00 0.05 0.04 90 1018.0
20260831033018 77 11 0.0 0.0 0.00 0.06 0.04 90 1018.0
20260831032509 77 11 0.0 0.0 0.00 0.06 0.04 90 1018.0
20260831032011 77 11 0.0 0.0 0.00 0.06 0.04 90 1018.0
20260831031539 77 11 0.0 0.0 0.00 0.06 0.04 89 1017.9
20260831031012 77 11 0.0 0.0 0.00 0.06 0.04 89 1017.8
20260831030512 77 11 0.0 0.0 0.00 0.06 0.04 89 1017.8
20260831030007 77 92 0.0 0.0 0.00 0.06 0.04 90 1017.8
20260831025502 78 92 0.0 0.0 0.00 0.06 0.04 89 1017.7
20260831025004 78 92 0.0 0.0 0.00 0.06 0.04 90 1017.9
20260831024510 78 92 0.0 0.0 0.00 0.06 0.04 89 1017.9
20260831024007 78 92 0.0 0.0 0.00 0.06 0.04 89 1017.9
20260831023504 78 92 0.0 0.0 0.00 0.06 0.04 90 1017.8
20260831023017 78 92 0.0 0.0 0.00 0.06 0.04 90 1017.8
20260831022510 78 92 0.0 0.0 0.00 0.07 0.04 90 1017.8
20260831022009 78 92 0.0 0.0 0.00 0.07 0.04 90 1017.8
20260831021525 79 92 0.0 0.0 0.00 0.07 0.04 89 1017.8
20260831021011 79 92 0.0 0.0 0.00 0.07 0.04 89 1017.7
20260831020512 79 92 0.0 0.0 0.00 0.07 0.04 89 1017.7
20260831020027 79 92 0.0 0.0 0.00 0.07 0.04 89 1017.7
20260831015513 79 92 0.0 0.0 0.00 0.07 0.04 89 1017.7
20260831015003 79 92 0.0 2.0 0.00 0.08 0.04 88 1017.7
20260831014508 79 92 0.0 3.0 0.00 0.08 0.04 88 1017.6
20260831014005 79 114 1.0 3.0 0.00 0.08 0.04 88 1017.5
20260831013504 80 90 0.0 2.0 0.00 0.08 0.04 88 1017.4
20260831013014 80 130 0.0 2.0 0.00 0.08 0.04 88 1017.4
20260831012508 80 130 0.0 2.0 0.00 0.08 0.04 87 1017.5
20260831012007 80 130 1.0 2.0 0.00 0.09 0.04 86 1017.3
20260831011527 81 123 0.0 0.0 0.00 0.09 0.04 86 1017.2
20260831011012 81 123 0.0 0.0 0.00 0.09 0.04 85 1017.3
20260831010517 81 171 0.0 3.0 0.00 0.10 0.04 84 1017.4
20260831010035 81 171 0.0 4.0 0.00 0.10 0.04 83 1017.3
20260831005514 82 170 1.0 7.0 0.00 0.10 0.04 83 1017.4
20260831005014 82 166 2.0 7.0 0.00 0.10 0.04 82 1017.4
20260831004508 82 165 4.0 7.0 0.00 0.11 0.04 81 1017.4
20260831004003 82 167 1.0 7.0 0.00 0.11 0.04 82 1017.4
20260831003505 82 196 2.0 5.0 0.00 0.11 0.04 82 1017.4
20260831003013 82 178 1.0 3.0 0.00 0.11 0.04 82 1017.4
20260831002507 82 185 1.0 4.0 0.00 0.12 0.04 82 1017.3
20260831002007 83 143 1.0 6.0 0.00 0.12 0.04 81 1017.4
20260831001517 83 160 3.0 6.0 0.00 0.12 0.04 81 1017.2
20260831001013 83 166 3.0 6.0 0.00 0.12 0.04 79 1017.3
20260831000512 84 123 3.0 8.0 0.00 0.13 0.04 79 1017.2
20260831000028 85 171 3.0 8.0 0.00 0.13 0.04 78 1017.1
20260830235512 85 66 0.0 0.0 0.00 0.13 0.04 78 1016.9
20260830235016 86 66 0.0 3.0 0.00 0.13 0.04 78 1016.7
20260830234543 86 61 0.0 3.0 0.00 0.13 0.04 77 1016.5
20260830234018 86 60 1.0 4.0 0.00 0.13 0.04 75 1016.4
20260830233505 86 49 0.0 4.0 0.00 0.13 0.04 75 1016.4
20260830233011 87 41 1.0 4.0 0.00 0.13 0.04 74 1016.3
20260830232506 87 55 1.0 4.0 0.00 0.13 0.04 74 1016.4
20260830232009 87 34 1.0 3.0 0.00 0.13 0.04 74 1016.3
20260830231517 87 24 1.0 4.0 0.00 0.13 0.04 73 1016.3
20260830231012 87 49 0.0 4.0 0.00 0.13 0.04 73 1016.3
20260830230510 87 27 1.0 4.0 0.00 0.13 0.04 73 1016.3
20260830230028 87 51 0.0 3.0 0.00 0.13 0.04 74 1016.2
20260830225513 87 36 1.0 2.0 0.00 0.13 0.04 74 1016.2
20260830225012 87 5 1.0 3.0 0.00 0.13 0.04 74 1016.2
20260830224527 87 17 1.0 3.0 0.00 0.13 0.04 72 1016.2
20260830224015 87 11 0.0 3.0 0.00 0.13 0.04 74 1016.2
20260830223516 87 24 0.0 3.0 0.00 0.13 0.04 73 1016.2
20260830223043 87 15 0.0 3.0 0.00 0.13 0.04 73 1016.2
20260830222502 88 34 1.0 3.0 0.00 0.13 0.04 72 1016.1
20260830222007 88 35 0.0 2.0 0.00 0.13 0.04 72 1016.1
20260830221525 88 36 0.0 4.0 0.00 0.13 0.04 71 1016.1
20260830221010 88 20 2.0 5.0 0.00 0.13 0.04 69 1016.0
20260830220509 88 42 1.0 8.0 0.00 0.13 0.04 67 1016.0
20260830220024 89 76 3.0 8.0 0.00 0.13 0.04 68 1016.0
20260830215509 89 20 2.0 6.0 0.00 0.13 0.04 68 1016.0
20260830215014 89 44 2.0 6.0 0.00 0.13 0.04 67 1016.0
20260830214530 89 14 2.0 8.0 0.00 0.13 0.04 68 1016.0
20260830214015 89 76 3.0 8.0 0.00 0.13 0.04 67 1016.0
20260830213514 89 87 3.0 7.0 0.00 0.13 0.04 68 1016.0
20260830213032 89 81 2.0 7.0 0.00 0.13 0.04 69 1016.0
20260830212518 89 42 2.0 5.0 0.00 0.13 0.04 67 1016.1
20260830212016 89 360 4.0 5.0 0.00 0.13 0.04 68 1016.2
20260830211514 89 31 2.0 4.0 0.00 0.13 0.04 71 1016.2
20260830211008 89 352 2.0 11.0 0.00 0.13 0.04 68 1016.2
20260830210509 90 5 4.0 11.0 0.00 0.13 0.04 66 1016.2
20260830210016 91 49 5.0 9.0 0.00 0.13 0.04 62 1016.2
20260830205512 91 88 4.0 8.0 0.00 0.13 0.04 63 1016.3
20260830205013 90 58 0.0 10.0 0.00 0.13 0.04 60 1016.4
20260830204536 91 82 4.0 10.0 0.00 0.13 0.04 60 1016.4
20260830204013 91 63 4.0 11.0 0.00 0.13 0.04 66 1016.4
20260830203503 90 94 4.0 11.0 0.00 0.13 0.04 62 1016.4
20260830203006 90 64 7.0 10.0 0.00 0.13 0.04 61 1016.4
20260830202504 90 94 8.0 10.0 0.00 0.13 0.04 64 1016.5
20260830202004 90 73 3.0 10.0 0.00 0.13 0.04 66 1016.5
20260830201511 90 69 6.0 10.0 0.00 0.13 0.04 65 1016.6
20260830201010 89 98 5.0 10.0 0.00 0.13 0.04 66 1016.6
20260830200507 89 101 1.0 8.0 0.00 0.13 0.04 65 1016.7
20260830200015 89 80 2.0 8.0 0.00 0.13 0.04 63 1016.6
20260830195509 89 78 3.0 7.0 0.00 0.13 0.04 65 1016.8
20260830195010 89 86 3.0 9.0 0.00 0.13 0.04 65 1016.8
20260830194524 88 115 4.0 9.0 0.00 0.13 0.04 64 1016.9
20260830194015 88 94 3.0 10.0 0.00 0.13 0.04 65 1017.0
20260830193514 88 111 6.0 10.0 0.00 0.13 0.04 66 1017.0
20260830193031 88 103 6.0 9.0 0.00 0.13 0.04 68 1017.1
20260830192502 88 87 4.0 7.0 0.00 0.13 0.04 70 1017.1
20260830192002 88 102 1.0 3.0 0.00 0.13 0.04 71 1017.4
20260830191508 87 75 1.0 4.0 0.00 0.13 0.04 74 1017.6
20260830191004 87 96 1.0 5.0 0.00 0.13 0.04 74 1017.7
20260830190508 87 78 1.0 8.0 0.00 0.13 0.04 73 1017.9
20260830190019 87 91 3.0 8.0 0.00 0.13 0.04 70 1017.9
20260830185507 87 63 2.0 8.0 0.00 0.13 0.04 71 1017.8
20260830185009 88 29 3.0 8.0 0.00 0.13 0.04 72 1017.9
20260830184523 88 53 1.0 9.0 0.00 0.13 0.04 71 1017.9
20260830184011 88 45 4.0 9.0 0.00 0.13 0.04 69 1018.0
20260830183513 89 74 5.0 9.0 0.00 0.13 0.04 70 1018.0
20260830183028 89 25 4.0 10.0 0.00 0.13 0.04 66 1018.1
20260830182514 89 80 3.0 10.0 0.00 0.13 0.04 67 1018.1
20260830182015 89 82 6.0 10.0 0.00 0.13 0.04 67 1018.1
20260830181507 89 149 3.0 10.0 0.00 0.13 0.04 68 1018.3
20260830181003 88 131 6.0 12.0 0.00 0.13 0.04 66 1018.3
20260830180506 88 107 9.0 12.0 0.00 0.13 0.04 66 1018.2
20260830180017 88 140 6.0 11.0 0.00 0.13 0.04 70 1018.3
20260830175506 88 74 4.0 10.0 0.00 0.13 0.04 68 1018.3
20260830175013 87 63 6.0 10.0 0.00 0.13 0.04 69 1018.4
20260830174520 88 88 5.0 8.0 0.00 0.13 0.04 70 1018.4
20260830174008 88 124 4.0 10.0 0.00 0.13 0.04 69 1018.5
20260830173515 88 71 5.0 10.0 0.00 0.13 0.04 70 1018.5
20260830173025 88 122 5.0 11.0 0.00 0.13 0.04 69 1018.5
20260830172514 88 110 3.0 11.0 0.00 0.13 0.04 68 1018.5
20260830172014 87 168 2.0 12.0 0.00 0.13 0.04 71 1018.5
20260830171531 87 121 9.0 12.0 0.00 0.13 0.04 69 1018.6
20260830171004 87 98 9.0 11.0 0.00 0.13 0.04 70 1018.6
20260830170502 87 96 6.0 12.0 0.00 0.13 0.04 71 1018.6
20260830170010 87 138 6.0 16.0 0.00 0.13 0.04 72 1018.7
20260830165502 87 61 10.0 16.0 0.00 0.13 0.04 71 1018.9
20260830165006 87 80 5.0 15.0 0.00 0.13 0.04 70 1018.9
20260830164541 87 125 9.0 15.0 0.00 0.13 0.04 70 1019.2
20260830164011 87 76 4.0 10.0 0.00 0.13 0.04 72 1019.3
20260830163508 87 83 5.0 10.0 0.00 0.13 0.04 75 1019.4
20260830163025 86 74 5.0 11.0 0.00 0.13 0.04 73 1019.4
20260830162511 86 113 8.0 11.0 0.00 0.13 0.04 74 1019.5
20260830162013 86 97 4.0 12.0 0.00 0.13 0.04 73 1019.5
20260830161528 86 99 7.0 12.0 0.00 0.13 0.04 74 1019.6
20260830161014 86 101 6.0 10.0 0.00 0.13 0.04 76 1019.6
20260830160519 85 49 5.0 10.0 0.00 0.13 0.04 75 1019.7
20260830160009 85 138 7.0 10.0 0.00 0.13 0.04 77 1019.7
20260830155508 85 142 6.0 10.0 0.00 0.13 0.04 75 1019.7
20260830155007 85 82 7.0 10.0 0.00 0.13 0.04 77 1019.7
20260830154524 85 84 6.0 10.0 0.00 0.13 0.04 76 1019.8
20260830154008 84 89 7.0 11.0 0.00 0.13 0.04 79 1019.7
20260830153509 84 86 6.0 11.0 0.00 0.13 0.04 79 1019.7
20260830153023 84 112 7.0 10.0 0.00 0.13 0.04 80 1019.7
20260830152510 83 82 6.0 10.0 0.00 0.13 0.04 80 1019.7
20260830152013 83 104 6.0 9.0 0.00 0.13 0.04 79 1019.8
20260830151528 83 90 5.0 9.0 0.00 0.13 0.04 79 1019.7
20260830151013 83 93 6.0 10.0 0.00 0.13 0.04 81 1019.5
20260830150517 83 84 4.0 10.0 0.00 0.13 0.04 81 1019.6
20260830150037 82 96 6.0 10.0 0.00 0.13 0.04 82 1019.5
20260830145516 82 100 6.0 10.0 0.00 0.13 0.04 81 1019.5
20260830145006 82 113 6.0 9.0 0.00 0.13 0.04 81 1019.7
20260830144514 82 98 3.0 9.0 0.00 0.13 0.04 84 1019.6
20260830144007 81 63 5.0 9.0 0.00 0.13 0.04 85 1019.5
20260830143506 81 79 4.0 9.0 0.00 0.13 0.04 86 1019.5
20260830143019 80 70 6.0 9.0 0.00 0.13 0.04 86 1019.5
20260830142514 80 96 4.0 9.0 0.00 0.13 0.04 87 1019.4
20260830142012 80 88 5.0 11.0 0.00 0.13 0.04 88 1019.5
20260830141527 79 111 7.0 11.0 0.00 0.13 0.04 88 1019.5
20260830141011 79 81 8.0 10.0 0.00 0.13 0.04 88 1019.5
20260830140517 79 52 6.0 10.0 0.00 0.13 0.04 88 1019.5
20260830140030 79 40 3.0 8.0 0.00 0.13 0.04 89 1019.6
20260830135517 78 96 4.0 8.0 0.00 0.13 0.04 90 1019.5
20260830135017 77 121 4.0 8.0 0.00 0.13 0.04 90 1019.4
20260830134534 77 55 4.0 8.0 0.00 0.13 0.04 91 1019.5
20260830134008 76 92 3.0 6.0 0.00 0.13 0.04 91 1019.5
20260830133509 76 69 4.0 6.0 0.00 0.13 0.04 92 1019.5
20260830133023 76 62 1.0 4.0 0.00 0.13 0.04 93 1019.4
20260830132508 75 65 1.0 4.0 0.00 0.13 0.04 94 1019.5
20260830132011 75 52 0.0 4.0 0.00 0.13 0.04 94 1019.4
20260830131536 74 58 1.0 4.0 0.00 0.13 0.04 94 1019.5
20260830131014 74 63 1.0 4.0 0.00 0.13 0.04 95 1019.5
20260830130517 74 74 1.0 4.0 0.00 0.13 0.04 95 1019.4
20260830130028 74 49 1.0 6.0 0.00 0.13 0.04 95 1019.4
20260830125515 74 76 3.0 6.0 0.00 0.13 0.04 95 1019.4
20260830125017 74 80 3.0 5.0 0.00 0.13 0.04 96 1019.2
20260830124531 74 86 3.0 5.0 0.00 0.13 0.04 96 1019.1
20260830124017 74 111 1.0 3.0 0.00 0.13 0.04 97 1019.0
20260830123510 73 92 1.0 3.0 0.00 0.13 0.04 97 1019.0
20260830123016 73 46 0.0 4.0 0.01 0.14 0.04 97 1019.0
20260830122508 73 47 1.0 4.0 0.01 0.14 0.04 97 1019.0